Погода в Ломже

Польша     53°10′23″N   22°04′06″E
темп.,
°C
ветер,
м/с
пор.,
м/с
влажн.,
%
обл.,
%
осадки,
мм/ч
давл.,
гПа
погр.,
м
27 февраля, сб
сб2701:00+2з5129385 0.0 1022387
04:00+1зсз6139428 0.0 1022387
07:00+2сз6119355 0.0 1024454
10:00+5сз7117320 0.0 1025943
13:00+6сз7116610 0.0 10271095
16:00+5сз611710 0.0 1027923
19:00+2сз512850 0.0 1029514
22:000сз511930 0.0 1030387
28 февраля, вс
вс2801:000сз499525 0.0 1031327
04:00+1зсз4989100 0.0 1030367
07:00+1зсз398998 0.0 1031286
10:00+4зсз587055 0.0 1029394
13:00+7зсз696535 0.0 1029817
16:00+4сз6108583 0.0 1028667
19:00+3сз6128989 0.0 1029536
22:00+2ссз4119355 0.0 1030322
1 марта, пн
пн101:00+1ссз379546 0.0 1032209
04:000сз33951 0.0 103285
07:00+1сз35941 0.0 1033133
10:00+6сз46740 0.0 1033357
13:00+9зсз45630 0.0 1033555
16:00+8з36650 0.0 1032264
19:00+5зюз49830 0.0 1032193
22:00+3з511880 0.0 1031252
2 марта, вт
вт201:00+3з511910 0.0 1031279
04:00+2з410930 0.0 1030272
07:00+1з49949 0.0 1030260
10:00+5зсз587787 0.0 1031454
13:00+9сз576446 0.0 1031743
16:00+8сз477416 0.0 1030660
19:00+3ссз369210 0.0 1031152
22:00+2ссз23940 0.0 103250
3 марта, ср
ср301:00+1сз12941 0.0 103222
04:00+1сз12920 0.0 103222
07:00+1ююз00860 0.0 103122
10:00+6ююз22620 0.0 1031328
13:00+9ююз34540 0.0 1030571
16:00+8юз35660 0.0 1028212
19:00+4юз34810 0.0 102642
22:00+3юз33880 0.0 102645